CW0762 Weather Reports


Display with metric or nautical units.
time (UTC)temp
F
wind
direction
speed
MPH
gust
MPH
rain 1hr
in
rain 24hr
in
rain mn
in
humidity
%
barometer
mb
20260902173056 96 294 0.0 5.0 0.00 0.00 0.00 48 1015.4
20260902171606 96 287 0.0 5.0 0.00 0.00 0.00 49 1015.7
20260902170051 95 59 0.0 4.0 0.00 0.00 0.00 50 1015.9
20260902164549 94 342 0.0 4.0 0.00 0.00 0.00 50 1016.2
20260902163046 93 65 0.0 3.0 0.00 0.00 0.00 52 1016.2
20260902161542 92 61 1.0 4.0 0.00 0.00 0.00 53 1016.3
20260902160046 91 58 0.0 4.0 0.00 0.00 0.00 53 1016.4
20260902154535 89 77 0.0 2.0 0.00 0.00 0.00 59 1016.4
20260902153033 88 78 0.0 3.0 0.00 0.00 0.00 60 1016.3
20260902151531 86 79 0.0 2.0 0.00 0.00 0.00 63 1016.4
20260902150031 85 98 0.0 3.0 0.00 0.00 0.00 65 1016.2
20260902144532 84 94 0.0 2.0 0.00 0.00 0.00 65 1016.3
20260902143030 83 26 0.0 2.0 0.00 0.00 0.00 68 1016.4
20260902141528 82 11 0.0 2.0 0.00 0.00 0.00 70 1016.3
20260902140035 81 53 0.0 3.0 0.00 0.00 0.00 71 1016.3
20260902134527 80 55 0.0 3.0 0.00 0.00 0.00 74 1016.2
20260902133027 78 51 0.0 3.0 0.00 0.00 0.00 77 1016.2
20260902131524 78 51 0.0 1.0 0.00 0.00 0.00 78 1016.0
20260902130023 77 51 0.0 0.0 0.00 0.00 0.00 78 1015.9
20260902124523 77 51 0.0 1.0 0.00 0.00 0.00 78 1015.7
20260902123026 77 51 0.0 1.0 0.00 0.00 0.00 77 1015.6
20260902121520 77 51 0.0 0.0 0.00 0.00 0.00 76 1015.4
20260902120017 78 51 0.0 0.0 0.00 0.00 0.00 75 1015.3
20260902114516 78 51 0.0 0.0 0.00 0.00 0.00 74 1015.3
20260902113015 78 51 0.0 0.0 0.00 0.00 0.00 73 1015.4
20260902111533 79 51 0.0 0.0 0.00 0.00 0.00 73 1015.4
20260902110034 79 51 0.0 0.0 0.00 0.00 0.00 72 1015.5
20260902104511 80 51 0.0 0.0 0.00 0.00 0.00 71 1015.4
20260902103009 80 51 0.0 0.0 0.00 0.00 0.00 70 1015.3
20260902101506 81 51 0.0 0.0 0.00 0.00 0.00 68 1015.3
20260902100004 81 51 0.0 0.0 0.00 0.00 0.00 67 1015.3
20260902094501 82 51 0.0 0.0 0.00 0.00 0.00 66 1015.2
20260902093059 82 51 0.0 0.0 0.00 0.00 0.00 65 1015.3
20260902091601 83 51 0.0 1.0 0.00 0.00 0.00 64 1015.3
20260902090056 83 51 0.0 3.0 0.00 0.00 0.00 64 1015.3
20260902084559 83 50 0.0 4.0 0.00 0.00 0.00 63 1015.3
20260902083103 83 40 1.0 3.0 0.00 0.00 0.00 63 1015.3
20260902081554 84 34 0.0 2.0 0.00 0.00 0.00 63 1015.3
20260902080108 84 30 0.0 4.0 0.00 0.00 0.00 63 1015.3
20260902074550 85 59 0.0 5.0 0.00 0.00 0.00 62 1015.4
20260902073048 85 49 1.0 4.0 0.00 0.00 0.00 61 1015.3
20260902071547 85 53 0.0 4.0 0.00 0.00 0.00 61 1015.4
20260902070047 86 47 0.0 5.0 0.00 0.00 0.00 60 1015.5
20260902064545 86 55 1.0 3.0 0.00 0.00 0.00 60 1015.4
20260902063043 86 51 3.0 8.0 0.00 0.00 0.00 59 1015.2
20260902060038 87 54 1.0 4.0 0.00 0.00 0.00 59 1015.0
20260902054545 87 61 0.0 5.0 0.00 0.00 0.00 58 1014.8
20260902053035 87 43 1.0 6.0 0.00 0.00 0.00 56 1014.7
20260902051532 88 43 2.0 8.0 0.00 0.00 0.00 55 1014.8
20260902050030 88 76 2.0 9.0 0.00 0.00 0.00 55 1014.7
20260902044530 88 66 2.0 5.0 0.00 0.00 0.00 54 1014.6
20260902043029 88 57 0.0 0.0 0.00 0.00 0.00 55 1014.5
20260902041530 88 57 0.0 0.0 0.00 0.00 0.00 54 1014.4
20260902040029 88 57 0.0 1.0 0.00 0.00 0.00 54 1014.4
20260902034528 88 57 0.0 2.0 0.00 0.00 0.00 54 1014.4
20260902033028 88 57 0.0 1.0 0.00 0.00 0.00 54 1014.4
20260902031528 89 57 0.0 0.0 0.00 0.00 0.00 53 1014.3
20260902030027 89 57 0.0 0.0 0.00 0.00 0.00 52 1014.1
20260902024527 90 57 0.0 0.0 0.00 0.00 0.00 50 1013.8
20260902023027 91 57 0.0 0.0 0.00 0.00 0.00 49 1013.6
20260902021526 92 57 0.0 1.0 0.00 0.00 0.00 48 1013.5
20260902020025 92 57 0.0 1.0 0.00 0.00 0.00 47 1013.3
20260902014531 93 57 0.0 2.0 0.00 0.00 0.00 45 1013.1
20260902013025 93 57 0.0 2.0 0.00 0.00 0.00 44 1012.9
20260902011524 94 57 0.0 2.0 0.00 0.00 0.00 43 1012.8
20260902010039 94 55 0.0 2.0 0.00 0.00 0.00 42 1012.8
20260902004526 95 51 0.0 2.0 0.00 0.00 0.00 42 1012.8
20260902003023 96 46 0.0 4.0 0.00 0.00 0.00 41 1012.8
20260902001522 96 55 0.0 4.0 0.00 0.00 0.00 41 1012.9
20260902000025 97 55 1.0 9.0 0.00 0.00 0.00 40 1013.0
20260901234520 98 56 1.0 4.0 0.00 0.00 0.00 39 1013.0
20260901233020 98 30 1.0 4.0 0.00 0.00 0.00 38 1013.1
20260901231519 99 51 0.0 8.0 0.00 0.00 0.00 38 1013.1
20260901230034 99 123 1.0 4.0 0.00 0.00 0.00 38 1013.1
20260901224520 99 73 1.0 8.0 0.00 0.00 0.00 36 1013.2
20260901223117 100 59 1.0 4.0 0.00 0.00 0.00 37 1013.2
20260901221516 99 50 0.0 3.0 0.00 0.00 0.00 37 1013.2
20260901220014 100 15 0.0 5.0 0.00 0.00 0.00 36 1013.4
20260901214513 101 37 1.0 4.0 0.00 0.00 0.00 37 1013.5
20260901213035 101 67 1.0 5.0 0.00 0.00 0.00 35 1013.6
20260901211516 101 24 1.0 4.0 0.00 0.00 0.00 36 1013.7
20260901210017 101 54 0.0 4.0 0.00 0.00 0.00 37 1013.9
20260901204508 101 51 1.0 4.0 0.00 0.00 0.00 36 1014.0
20260901203007 101 38 1.0 5.0 0.00 0.00 0.00 37 1014.2
20260901201503 101 291 0.0 3.0 0.00 0.00 0.00 38 1014.3
20260901200100 100 264 1.0 3.0 0.00 0.00 0.00 39 1014.6
20260901194559 100 58 1.0 8.0 0.00 0.00 0.00 40 1014.7
20260901193102 99 47 1.0 4.0 0.00 0.00 0.00 40 1014.9
20260901191605 100 113 0.0 5.0 0.00 0.00 0.00 39 1015.0
20260901190057 99 61 1.0 5.0 0.00 0.00 0.00 41 1015.3
20260901184556 99 63 1.0 7.0 0.00 0.00 0.00 40 1015.5
20260901183055 99 5 0.0 5.0 0.00 0.00 0.00 42 1015.8
20260901181553 99 60 0.0 5.0 0.00 0.00 0.00 42 1016.1
20260901180050 98 341 0.0 2.0 0.00 0.00 0.00 45 1016.3
20260901174548 96 56 1.0 5.0 0.00 0.00 0.00 45 1016.5